Overview Statistics Trail Chart Weather Telemetry Raw packets
 

This is the latest recevied weather packets stored in our database for station/object SP3VSS-13. If no packets are shown the sender has not sent any weather packets the latest 10 day(s).

<< 5 6 7 8 9 10 11 >>
Time Temp. Humidity Pressure Rain* Wind** Luminosity Snow
1788456636 21.11° C 58% 1001.7 hPa - - - -
1788455735 21.11° C 58% 1001.8 hPa - - - -
1788454834 21.11° C 58% 1001.9 hPa - - - -
1788453933 21.11° C 58% 1001.9 hPa - - - -
1788453032 21.11° C 57% 1002.1 hPa - - - -
1788452131 21.67° C 55% 1002.2 hPa - - - -
1788451231 21.67° C 55% 1002.3 hPa - - - -
1788450329 21.67° C 55% 1002.4 hPa - - - -
1788449428 21.67° C 55% 1002.5 hPa - - - -
1788448527 21.67° C 58% 1002.5 hPa - - - -
1788447627 21.67° C 58% 1002.6 hPa - - - -
1788446726 21.67° C 57% 1002.8 hPa - - - -
1788445825 21.67° C 57% 1003 hPa - - - -
1788444924 21.11° C 57% 1003.3 hPa - - - -
1788444023 21.11° C 57% 1003.6 hPa - - - -
1788443122 21.67° C 58% 1003.7 hPa - - - -
1788442221 22.22° C 60% 1003.7 hPa - - - -
1788441320 21.67° C 59% 1003.7 hPa - - - -
1788440419 21.67° C 59% 1003.9 hPa - - - -
1788439518 21.11° C 60% 1004 hPa - - - -
1788438617 21.67° C 58% 1004.1 hPa - - - -
1788437716 21.67° C 58% 1004.3 hPa - - - -
1788436814 21.67° C 58% 1004.3 hPa - - - -
1788435913 21.67° C 57% 1004.4 hPa - - - -
1788435013 21.67° C 55% 1004.6 hPa - - - -

* Rain since midnight (hover to see other rain measurements)
** Current wind speed in m/s (hover to see current wind gust speed)